timestamp,wind_dir_avg,wind_spd_avg,wind_spd_max_dir,wind_spd_gust,battery_voltage,lat,long
2023-11-03 00:04:01+00:00,306.0,7.07,299.0,10.74,12.41,47.59359,-54.27349
2023-11-03 00:14:01+00:00,305.0,7.45,299.0,11.28,12.41,47.59359,-54.27349
2023-11-03 00:24:01+00:00,309.0,8.41,304.0,11.12,12.41,47.59359,-54.27349
2023-11-03 00:34:01+00:00,294.0,8.17,290.0,10.85,12.41,47.59359,-54.27349
2023-11-03 00:44:01+00:00,297.0,8.99,296.0,10.82,12.41,47.59359,-54.27349
2023-11-03 00:54:01+00:00,296.0,8.99,290.0,10.87,12.41,47.59359,-54.27349
2023-11-03 01:04:01+00:00,298.0,9.22,304.0,10.91,12.41,47.59359,-54.27349
2023-11-03 01:14:00+00:00,295.0,9.75,297.0,10.9,12.33,47.59359,-54.27349
2023-11-03 01:24:00+00:00,288.0,9.82,288.0,10.78,12.33,47.59359,-54.27349
2023-11-03 01:34:00+00:00,289.0,9.06,289.0,10.63,12.33,47.59359,-54.27349
2023-11-03 01:44:00+00:00,296.0,9.09,296.0,10.9,12.33,47.59359,-54.27349
2023-11-03 01:54:00+00:00,295.0,8.55,290.0,10.74,12.33,47.59359,-54.27349
2023-11-03 02:04:00+00:00,295.0,9.04,294.0,10.8,12.33,47.59359,-54.27349
2023-11-03 02:14:01+00:00,295.0,8.87,294.0,10.88,12.33,47.59359,-54.27349
2023-11-03 02:24:01+00:00,286.0,9.12,292.0,10.96,12.33,47.59359,-54.27349
2023-11-03 02:34:01+00:00,291.0,8.75,289.0,10.56,12.33,47.59359,-54.27349
2023-11-03 02:44:01+00:00,288.0,8.87,286.0,10.7,12.33,47.59359,-54.27349
2023-11-03 02:54:01+00:00,303.0,5.12,292.0,8.47,12.33,47.59359,-54.27349
2023-11-03 03:04:01+00:00,283.0,8.76,285.0,10.52,12.33,47.59359,-54.27349
2023-11-03 03:14:00+00:00,297.0,6.22,283.0,9.9,12.25,47.59359,-54.27349
2023-11-03 03:24:00+00:00,281.0,9.88,285.0,10.77,12.25,47.59359,-54.27349
2023-11-03 03:34:00+00:00,283.0,8.27,277.0,10.32,12.25,47.59359,-54.27349
2023-11-03 03:44:00+00:00,284.0,9.1,289.0,10.71,12.25,47.59359,-54.27349
2023-11-03 03:54:00+00:00,281.0,7.95,276.0,10.41,12.25,47.59359,-54.27349
2023-11-03 04:04:00+00:00,274.0,8.4,277.0,10.44,12.25,47.59359,-54.27349
2023-11-03 04:14:00+00:00,272.0,8.68,275.0,10.37,12.25,47.59359,-54.27349
2023-11-03 04:24:00+00:00,270.0,9.19,265.0,10.42,12.25,47.59359,-54.27349
2023-11-03 04:34:00+00:00,272.0,6.31,271.0,9.95,12.25,47.59359,-54.27349
2023-11-03 04:44:00+00:00,272.0,5.86,268.0,9.89,12.25,47.59359,-54.27349
2023-11-03 04:54:00+00:00,269.0,7.09,266.0,10.09,12.25,47.59359,-54.27349
2023-11-03 05:04:00+00:00,278.0,8.68,282.0,10.55,12.25,47.59359,-54.27349
2023-11-03 05:14:00+00:00,271.0,9.45,270.0,10.32,12.25,47.59359,-54.27349
2023-11-03 05:24:00+00:00,276.0,7.89,270.0,10.11,12.25,47.59359,-54.27349
2023-11-03 05:34:00+00:00,274.0,8.61,273.0,10.42,12.25,47.59359,-54.27349
2023-11-03 05:44:00+00:00,279.0,7.78,281.0,10.1,12.25,47.59359,-54.27349
2023-11-03 05:54:00+00:00,272.0,7.86,271.0,10.1,12.25,47.59359,-54.27349
2023-11-03 06:04:00+00:00,277.0,7.76,270.0,9.56,12.25,47.59359,-54.27349
2023-11-03 06:14:00+00:00,281.0,6.08,274.0,9.02,12.25,47.59359,-54.27349
2023-11-03 06:24:00+00:00,270.0,6.94,268.0,8.92,12.25,47.59359,-54.27349
2023-11-03 06:34:00+00:00,268.0,5.39,271.0,8.7,12.25,47.59359,-54.27349
2023-11-03 06:44:00+00:00,266.0,6.15,263.0,9.32,12.25,47.59359,-54.27349
2023-11-03 06:54:00+00:00,270.0,3.99,268.0,4.57,12.25,47.59359,-54.27349
2023-11-03 07:04:00+00:00,262.0,5.15,261.0,6.67,12.25,47.59359,-54.27349
2023-11-03 07:14:00+00:00,265.0,4.83,278.0,6.16,12.17,47.59359,-54.27349
2023-11-03 07:24:00+00:00,267.0,4.91,267.0,5.71,12.17,47.59359,-54.27349
2023-11-03 07:34:00+00:00,270.0,5.83,270.0,7.01,12.17,47.59359,-54.27349
2023-11-03 07:44:00+00:00,271.0,6.9,278.0,7.53,12.17,47.59359,-54.27349
2023-11-03 07:54:00+00:00,258.0,5.65,257.0,7.14,12.17,47.59359,-54.27349
2023-11-03 08:04:00+00:00,268.0,5.3,276.0,6.28,12.17,47.59359,-54.27349
2023-11-03 08:14:00+00:00,260.0,4.77,263.0,5.89,12.17,47.59359,-54.27349
2023-11-03 08:24:00+00:00,275.0,5.12,263.0,6.15,12.17,47.59359,-54.27349
2023-11-03 08:34:00+00:00,272.0,5.08,269.0,7.1,12.17,47.59359,-54.27349
2023-11-03 08:44:00+00:00,291.0,6.35,298.0,7.34,12.17,47.59359,-54.27349
2023-11-03 08:54:00+00:00,310.0,6.27,310.0,7.19,12.17,47.59359,-54.27349
2023-11-03 09:04:00+00:00,309.0,4.3,313.0,5.18,12.17,47.59359,-54.27349
2023-11-03 09:14:00+00:00,266.0,6.22,268.0,7.05,12.09,47.59359,-54.27349
2023-11-03 09:24:00+00:00,263.0,6.44,266.0,7.32,12.09,47.59359,-54.27349
2023-11-03 09:34:00+00:00,270.0,6.24,266.0,7.04,12.09,47.59359,-54.27349
2023-11-03 09:44:00+00:00,255.0,6.92,262.0,7.68,12.09,47.59359,-54.27349
2023-11-03 09:54:00+00:00,259.0,7.11,259.0,8.04,12.09,47.59359,-54.27349
2023-11-03 10:04:00+00:00,272.0,6.38,273.0,7.18,12.09,47.59359,-54.27349
2023-11-03 10:14:00+00:00,265.0,6.71,264.0,7.47,12.09,47.59359,-54.27349
2023-11-03 10:24:00+00:00,268.0,7.42,258.0,8.34,12.09,47.59359,-54.27349
2023-11-03 10:34:00+00:00,273.0,6.94,274.0,7.76,12.09,47.59359,-54.27349
2023-11-03 10:44:00+00:00,263.0,7.3,260.0,8.05,12.09,47.59359,-54.27349
2023-11-03 10:54:00+00:00,263.0,7.57,262.0,8.23,12.09,47.59359,-54.27349
2023-11-03 11:04:00+00:00,258.0,7.05,257.0,8.17,12.09,47.59359,-54.27349
2023-11-03 11:14:00+00:00,259.0,7.31,260.0,8.07,12.09,47.59359,-54.27349
2023-11-03 11:24:00+00:00,249.0,6.23,253.0,7.28,12.09,47.59359,-54.27349
2023-11-03 11:34:00+00:00,253.0,6.45,249.0,7.62,12.09,47.59359,-54.27349
2023-11-03 11:44:00+00:00,260.0,6.13,250.0,7.15,12.09,47.59359,-54.27349
2023-11-03 11:54:00+00:00,258.0,6.8,252.0,8.16,12.09,47.59359,-54.27349
2023-11-03 12:04:00+00:00,262.0,7.28,268.0,8.42,12.09,47.59359,-54.27349
2023-11-03 12:14:00+00:00,262.0,6.98,251.0,9.29,12.97,47.59359,-54.27349
2023-11-03 12:24:00+00:00,261.0,6.87,259.0,7.54,12.97,47.59359,-54.27349
2023-11-03 12:34:00+00:00,255.0,6.55,250.0,7.52,12.97,47.59359,-54.27349
2023-11-03 12:44:00+00:00,253.0,5.95,251.0,7.11,12.97,47.59359,-54.27349
2023-11-03 12:54:00+00:00,254.0,4.27,264.0,5.75,12.97,47.59359,-54.27349
2023-11-03 13:04:00+00:00,251.0,5.39,250.0,5.99,12.97,47.59359,-54.27349
2023-11-03 13:14:00+00:00,245.0,5.34,237.0,6.51,13.29,47.59359,-54.27349
2023-11-03 13:24:00+00:00,251.0,6.17,257.0,7.0,13.29,47.59359,-54.27349
2023-11-03 13:34:00+00:00,231.0,5.64,234.0,6.6,13.29,47.59359,-54.27349
2023-11-03 13:44:00+00:00,240.0,5.37,243.0,6.4,13.29,47.59359,-54.27349
2023-11-03 13:54:00+00:00,239.0,5.3,235.0,6.72,13.29,47.59359,-54.27349
2023-11-03 14:04:00+00:00,240.0,6.21,239.0,7.24,13.29,47.59359,-54.27349
2023-11-03 14:14:00+00:00,232.0,6.75,232.0,7.85,13.6,47.59359,-54.27349
2023-11-03 14:24:00+00:00,232.0,6.8,234.0,8.15,13.6,47.59359,-54.27349
2023-11-03 14:34:00+00:00,232.0,6.73,233.0,7.36,13.6,47.59359,-54.27349
2023-11-03 14:44:00+00:00,230.0,4.95,230.0,5.81,13.6,47.59359,-54.27349
2023-11-03 14:54:00+00:00,231.0,4.94,226.0,6.01,13.6,47.59359,-54.27349
2023-11-03 15:04:00+00:00,225.0,7.12,219.0,8.38,13.6,47.59359,-54.27349
2023-11-03 15:14:00+00:00,240.0,4.35,245.0,5.16,13.53,47.59359,-54.27349
2023-11-03 15:24:00+00:00,239.0,5.9,238.0,6.84,13.53,47.59359,-54.27349
2023-11-03 15:34:00+00:00,253.0,5.89,254.0,6.7,13.53,47.59359,-54.27349
2023-11-03 15:44:00+00:00,242.0,5.15,238.0,5.98,13.53,47.59359,-54.27349
2023-11-03 15:54:00+00:00,256.0,5.61,253.0,6.32,13.53,47.59359,-54.27349
2023-11-03 16:04:00+00:00,246.0,5.85,246.0,7.36,13.53,47.59359,-54.27349
2023-11-03 16:14:01+00:00,249.0,6.34,252.0,7.66,13.53,47.59359,-54.27349
2023-11-03 16:24:01+00:00,248.0,6.45,248.0,7.46,13.53,47.59359,-54.27349
2023-11-03 16:34:01+00:00,249.0,6.2,244.0,7.25,13.53,47.59359,-54.27349
2023-11-03 16:44:01+00:00,258.0,6.68,256.0,7.29,13.53,47.59359,-54.27349
2023-11-03 16:54:01+00:00,260.0,7.17,262.0,9.36,13.53,47.59359,-54.27349
2023-11-03 17:04:01+00:00,249.0,6.84,247.0,7.61,13.53,47.59359,-54.27349
2023-11-03 17:14:00+00:00,254.0,6.79,252.0,7.54,13.44,47.59359,-54.27349
2023-11-03 17:24:00+00:00,244.0,6.42,243.0,7.31,13.44,47.59359,-54.27349
2023-11-03 17:34:00+00:00,244.0,4.3,237.0,5.3,13.44,47.59359,-54.27349
2023-11-03 17:44:00+00:00,249.0,5.66,244.0,7.09,13.44,47.59359,-54.27349
2023-11-03 17:54:00+00:00,247.0,7.17,241.0,8.06,13.44,47.59359,-54.27349
2023-11-03 18:04:00+00:00,255.0,8.72,262.0,13.39,13.44,47.59359,-54.27349
2023-11-03 18:14:01+00:00,259.0,9.83,262.0,13.39,13.53,47.59359,-54.27349
2023-11-03 18:24:01+00:00,255.0,8.21,259.0,11.97,13.53,47.59359,-54.27349
2023-11-03 18:34:01+00:00,254.0,7.99,260.0,13.07,13.53,47.59359,-54.27349
2023-11-03 18:44:01+00:00,254.0,12.93,253.0,15.27,13.53,47.59359,-54.27349
2023-11-03 18:54:01+00:00,264.0,12.58,265.0,14.47,13.53,47.59359,-54.27349
2023-11-03 19:04:01+00:00,259.0,9.12,259.0,13.83,13.53,47.59359,-54.27349
2023-11-03 19:14:01+00:00,296.0,7.22,300.0,8.37,13.29,47.59359,-54.27349
2023-11-03 19:24:01+00:00,314.0,6.83,319.0,7.88,13.29,47.59359,-54.27349
2023-11-03 19:34:01+00:00,298.0,7.2,302.0,8.24,13.29,47.59359,-54.27349
2023-11-03 19:44:01+00:00,287.0,5.61,287.0,6.4,13.29,47.59359,-54.27349
2023-11-03 19:54:01+00:00,295.0,5.82,290.0,7.21,13.29,47.59359,-54.27349
2023-11-03 20:04:01+00:00,311.0,4.37,315.0,5.26,13.29,47.59359,-54.27349
2023-11-03 20:14:01+00:00,305.0,3.84,303.0,4.59,12.73,47.59359,-54.27349
2023-11-03 20:24:01+00:00,307.0,3.9,300.0,4.49,12.73,47.59359,-54.27349
2023-11-03 20:34:01+00:00,315.0,4.24,298.0,5.47,12.73,47.59359,-54.27349
2023-11-03 20:44:01+00:00,310.0,4.08,297.0,5.06,12.73,47.59359,-54.27349
2023-11-03 20:54:01+00:00,311.0,3.72,301.0,4.27,12.73,47.59359,-54.27349
2023-11-03 21:04:01+00:00,313.0,2.61,312.0,3.01,12.73,47.59359,-54.27349
2023-11-03 21:14:00+00:00,285.0,3.06,282.0,4.21,12.49,47.59359,-54.27349
2023-11-03 21:24:00+00:00,286.0,3.15,277.0,5.65,12.49,47.59359,-54.27349
2023-11-03 21:34:00+00:00,271.0,3.41,271.0,5.47,12.49,47.59359,-54.27349
2023-11-03 21:44:00+00:00,290.0,4.12,283.0,6.07,12.49,47.59359,-54.27349
2023-11-03 21:54:00+00:00,292.0,3.83,283.0,5.95,12.49,47.59359,-54.27349
2023-11-03 22:04:00+00:00,279.0,4.75,277.0,6.19,12.49,47.59359,-54.27349
2023-11-03 22:14:01+00:00,273.0,3.63,274.0,5.97,12.41,47.59359,-54.27349
2023-11-03 22:24:01+00:00,273.0,4.01,277.0,4.78,12.41,47.59359,-54.27349
2023-11-03 22:34:01+00:00,291.0,3.3,283.0,5.89,12.41,47.59359,-54.27349
2023-11-03 22:44:01+00:00,285.0,3.43,278.0,5.27,12.41,47.59359,-54.27349
2023-11-03 22:54:01+00:00,256.0,5.79,261.0,7.16,12.41,47.59359,-54.27349
2023-11-03 23:04:01+00:00,263.0,6.0,264.0,7.19,12.41,47.59359,-54.27349
2023-11-03 23:14:01+00:00,257.0,6.09,255.0,7.31,12.41,47.59359,-54.27349
2023-11-03 23:24:01+00:00,251.0,5.8,255.0,6.91,12.41,47.59359,-54.27349
2023-11-03 23:34:01+00:00,253.0,6.13,254.0,7.93,12.41,47.59359,-54.27349
2023-11-03 23:44:01+00:00,253.0,7.37,251.0,8.23,12.41,47.59359,-54.27349
2023-11-03 23:54:01+00:00,237.0,8.06,236.0,9.18,12.41,47.59359,-54.27349
